Simultaneous Nadir Overpasses (SNOs) Predictions

Prediction of SNOs between GOES-15 and METOP-A Satellite Orbit:

Table of predicted SNOs for the next 14.0 days since TLE Epoch: 1/9/2021
Index Date Time (GOES-15) GOES-15 Lat,Lon METOP-A Lat,Lon Distance(km) Time Diff (sec)
1 01/09/2021 16:45:47 0.26,-128.15 -0.34,-125.49 303.76 80
2 01/11/2021 05:02:08 -0.23,-128.13 -0.64,-130.13 227.24 80
3 01/12/2021 04:44:08 -0.26,-128.11 0.40,-125.14 338.63 80
4 01/13/2021 17:00:20 0.23,-128.08 0.59,-129.75 189.09 80
5 01/14/2021 16:42:20 0.26,-128.06 -0.46,-124.76 376.39 80
6 01/16/2021 04:58:41 -0.23,-128.04 -0.52,-129.40 155.25 80
7 01/17/2021 04:40:40 -0.25,-128.02 0.52,-124.41 410.57 80
8 01/18/2021 16:56:53 0.22,-127.99 0.46,-129.02 117.00 80
9 01/19/2021 16:38:53 0.24,-127.97 -0.64,-124.04 448.33 80
10 01/21/2021 04:55:14 -0.21,-127.94 -0.39,-128.67 84.23 80
11 01/22/2021 04:37:14 -0.23,-127.92 0.72,-123.70 481.14 80
